Weather History for KFKN - January, 2014

Change the Weather History Date:

Saturday, January 25, 2014

  Actual Average (KSFQ) Record (KSFQ)
Temperature  
Mean Temperature 27 °F -  
Max Temperature 37 °F 50 °F 76 °F (1950)
Min Temperature 17 °F 32 °F 14 °F (1961)
Degree Days  
Heating Degree Days 38    
Moisture  
Dew Point 8 °F    
Average Humidity 43    
Maximum Humidity 54    
Minimum Humidity 30    
Precipitation  
Precipitation 0.00 in - - ()
Sea Level Pressure  
Sea Level Pressure 29.87 in    
Wind  
Wind Speed 10 mph (SW)    
Max Wind Speed 21 mph    
Max Gust Speed 30 mph    
Visibility 10 miles    
Events      
Averages and records for this station are not official NWS values.
T = Trace of Precipitation, MM = Missing Value Source: NWS Daily Summary

Daily Weather History Graph

Daily Weather History Graph

Search for Another Location

Airport or City:

Trip Planner

Search our weather history database for the weather conditions in past years. The results will help you decide how hot, cold, wet, or windy it might be!

Date:

Astronomy

Jan. 25, 2014 Rise Set
Actual Time 7:14 AM EST 5:25 PM EST
Civil Twilight 6:46 AM EST 5:53 PM EST
Nautical Twilight 6:15 AM EST 6:24 PM EST
Astronomical Twilight 5:44 AM EST 6:55 PM EST
Moon 1:45 AM EST (1/25) 12:24 PM EST (1/25)
Length of Visible Light 11h 06m
Length of Day
10h 11m
Waning Crescent, 34% of the Moon is Illuminated
Jan 25
Waning Crescent
Jan 30
New
Feb 6
First Quarter
Feb 14
Full
Feb 22
Last Quarter

Hourly Weather History & Observations

Time (EST) Temp. Windchill Dew Point Humidity Pressure Visibility Wind Dir Wind Speed Gust Speed Precip Events Conditions
12:15 AM 19.4 °F 8.6 °F 3.2 °F 49% 30.26 in 10.0 mi South 9.2 mph - N/A   Clear
12:35 AM 17.6 °F 7.3 °F 3.2 °F 53% 30.26 in 10.0 mi SSW 8.1 mph - N/A   Clear
12:55 AM 17.6 °F 6.4 °F 3.2 °F 53% 30.25 in 10.0 mi South 9.2 mph - N/A   Clear
1:15 AM 17.6 °F 7.3 °F 3.2 °F 53% 30.24 in 10.0 mi South 8.1 mph - N/A   Clear
1:35 AM 17.6 °F 6.4 °F 3.2 °F 53% 30.22 in 10.0 mi South 9.2 mph - N/A   Clear
1:55 AM 17.6 °F 5.7 °F 3.2 °F 53% 30.21 in 10.0 mi South 10.4 mph - N/A   Clear
2:15 AM 19.4 °F 7.9 °F 3.2 °F 49% 30.21 in 10.0 mi South 10.4 mph 17.3 mph N/A   Clear
2:35 AM 19.4 °F 7.9 °F 3.2 °F 49% 30.19 in 10.0 mi South 10.4 mph - N/A   Clear
2:55 AM 19.4 °F 7.2 °F 3.2 °F 49% 30.18 in 10.0 mi SSW 11.5 mph 17.3 mph N/A   Clear
3:15 AM 19.4 °F 7.9 °F 3.2 °F 49% 30.16 in 10.0 mi SSW 10.4 mph 16.1 mph N/A   Clear
3:35 AM 19.4 °F 7.9 °F 3.2 °F 49% 30.15 in 10.0 mi SSW 10.4 mph - N/A   Clear
3:55 AM 17.6 °F 6.4 °F 3.2 °F 53% 30.14 in 10.0 mi South 9.2 mph 17.3 mph N/A   Clear
4:15 AM 17.6 °F 5.7 °F 3.2 °F 53% 30.12 in 10.0 mi South 10.4 mph - N/A   Clear
4:35 AM 17.6 °F 5.7 °F 3.2 °F 53% 30.10 in 10.0 mi South 10.4 mph - N/A   Clear
4:55 AM 17.6 °F 6.4 °F 3.2 °F 53% 30.09 in 10.0 mi South 9.2 mph - N/A   Clear
5:15 AM 17.6 °F 5.0 °F 3.2 °F 53% 30.07 in 10.0 mi South 11.5 mph - N/A   Clear
5:35 AM 17.6 °F 5.7 °F 3.2 °F 53% 30.05 in 10.0 mi South 10.4 mph - N/A   Clear
5:55 AM 19.4 °F 7.2 °F 3.2 °F 49% 30.04 in 10.0 mi SSW 11.5 mph - N/A   Clear
6:15 AM 19.4 °F 7.2 °F 3.2 °F 49% 30.03 in 10.0 mi SSW 11.5 mph - N/A   Clear
6:35 AM 19.4 °F 7.9 °F 5.0 °F 54% 30.04 in 10.0 mi SSW 10.4 mph 18.4 mph N/A   Clear
6:55 AM 19.4 °F 8.6 °F 3.2 °F 49% 30.04 in 10.0 mi South 9.2 mph - N/A   Clear
7:15 AM 19.4 °F 10.4 °F 3.2 °F 49% 30.02 in 10.0 mi South 6.9 mph - N/A   Clear
7:35 AM 19.4 °F 8.6 °F 5.0 °F 54% 30.02 in 10.0 mi SSW 9.2 mph - N/A   Clear
7:55 AM 21.2 °F 10.1 °F 5.0 °F 50% 30.00 in 10.0 mi South 10.4 mph - N/A   Clear
8:15 AM 21.2 °F 10.9 °F 5.0 °F 50% 29.99 in 10.0 mi South 9.2 mph - N/A   Clear
8:35 AM 23.0 °F 12.4 °F 5.0 °F 46% 29.97 in 10.0 mi South 10.4 mph 16.1 mph N/A   Clear
8:55 AM 24.8 °F 16.9 °F 6.8 °F 46% 29.97 in 10.0 mi South 6.9 mph - N/A   Clear
9:15 AM 28.4 °F 18.5 °F 3.2 °F 34% 29.95 in 10.0 mi SSW 11.5 mph 16.1 mph N/A   Clear
9:35 AM 28.4 °F 16.6 °F 3.2 °F 34% 29.94 in 10.0 mi SW 16.1 mph 24.2 mph N/A   Clear
9:55 AM 30.2 °F 18.5 °F 3.2 °F 32% 29.92 in 10.0 mi SW 17.3 mph 24.2 mph N/A   Clear
10:15 AM 30.2 °F 17.4 °F 3.2 °F 32% 29.91 in 10.0 mi SSW 20.7 mph 28.8 mph N/A   Clear
10:35 AM 30.2 °F 18.9 °F 3.2 °F 32% 29.89 in 10.0 mi SSW 16.1 mph 26.5 mph N/A   Clear
10:55 AM 30.2 °F 17.8 °F 3.2 °F 32% 29.86 in 10.0 mi SSW 19.6 mph 28.8 mph N/A   Clear
11:15 AM 32.0 °F 22.5 °F 6.8 °F 35% 29.84 in 10.0 mi SSW 12.7 mph 23.0 mph N/A   Clear
11:35 AM 33.8 °F 25.3 °F 6.8 °F 32% 29.81 in 10.0 mi SSW 11.5 mph 24.2 mph N/A   Clear
11:55 AM 33.8 °F 25.8 °F 6.8 °F 32% 29.78 in 10.0 mi SW 10.4 mph 23.0 mph N/A   Scattered Clouds
12:15 PM 35.6 °F 25.9 °F 6.8 °F 30% 29.75 in 10.0 mi SW 16.1 mph 29.9 mph N/A   Scattered Clouds
12:35 PM 35.6 °F 25.5 °F 6.8 °F 30% 29.72 in 10.0 mi SW 17.3 mph 25.3 mph N/A   Clear
12:55 PM 35.6 °F 25.2 °F 6.8 °F 30% 29.70 in 10.0 mi SSW 18.4 mph 27.6 mph N/A   Clear
1:15 PM 35.6 °F 24.8 °F 6.8 °F 30% 29.68 in 10.0 mi SW 19.6 mph 28.8 mph N/A   Clear
1:35 PM 35.6 °F 24.8 °F 6.8 °F 30% 29.66 in 10.0 mi SW 19.6 mph 25.3 mph N/A   Clear
1:55 PM 35.6 °F 27.5 °F 8.6 °F 33% 29.66 in 10.0 mi SW 11.5 mph 23.0 mph N/A   Scattered Clouds
2:15 PM 35.6 °F 26.2 °F 8.6 °F 33% 29.65 in 10.0 mi SW 15.0 mph 21.9 mph N/A   Mostly Cloudy
2:35 PM 35.6 °F 28.6 °F 8.6 °F 33% 29.64 in 10.0 mi SW 9.2 mph 19.6 mph N/A   Mostly Cloudy
2:55 PM 37.4 °F 29.3 °F 10.4 °F 33% 29.63 in 10.0 mi SW 12.7 mph 17.3 mph N/A   Scattered Clouds
3:15 PM 37.4 °F 29.3 °F 10.4 °F 33% 29.62 in 10.0 mi SW 12.7 mph 18.4 mph N/A   Clear
3:35 PM 37.4 °F 29.8 °F 10.4 °F 33% 29.62 in 10.0 mi SW 11.5 mph 18.4 mph N/A   Scattered Clouds
3:55 PM 37.4 °F 30.3 °F 12.2 °F 36% 29.62 in 10.0 mi SW 10.4 mph - N/A   Scattered Clouds
4:15 PM 37.4 °F 30.8 °F 12.2 °F 36% 29.61 in 10.0 mi SW 9.2 mph 17.3 mph N/A   Scattered Clouds
4:35 PM 37.4 °F 29.3 °F 12.2 °F 36% 29.61 in 10.0 mi SW 12.7 mph 18.4 mph N/A   Scattered Clouds
4:55 PM 37.4 °F 31.4 °F 15.8 °F 41% 29.61 in 10.0 mi SW 8.1 mph 20.7 mph N/A   Clear
5:15 PM 37.4 °F 30.3 °F 15.8 °F 41% 29.61 in 10.0 mi WSW 10.4 mph 17.3 mph N/A   Scattered Clouds
5:35 PM 37.4 °F 30.8 °F 15.8 °F 41% 29.62 in 10.0 mi SW 9.2 mph - N/A   Scattered Clouds
5:55 PM 37.4 °F 32.1 °F 15.8 °F 41% 29.63 in 10.0 mi SW 6.9 mph 16.1 mph N/A   Scattered Clouds
6:15 PM 37.4 °F 31.4 °F 15.8 °F 41% 29.63 in 10.0 mi SW 8.1 mph - N/A   Scattered Clouds
6:35 PM 35.6 °F 29.9 °F 15.8 °F 44% 29.64 in 10.0 mi SW 6.9 mph - N/A   Clear
6:55 PM 35.6 °F 29.9 °F 15.8 °F 44% 29.65 in 10.0 mi SW 6.9 mph - N/A   Clear
7:15 PM 35.6 °F 29.2 °F 17.6 °F 48% 29.66 in 10.0 mi WSW 8.1 mph - N/A   Clear
7:35 PM 35.6 °F 29.9 °F 17.6 °F 48% 29.67 in 10.0 mi WSW 6.9 mph - N/A   Clear
7:55 PM 35.6 °F 30.7 °F 15.8 °F 44% 29.69 in 10.0 mi WSW 5.8 mph - N/A   Clear
8:15 PM 35.6 °F 29.2 °F 15.8 °F 44% 29.70 in 10.0 mi WSW 8.1 mph - N/A   Clear
8:35 PM 35.6 °F 29.9 °F 15.8 °F 44% 29.70 in 10.0 mi WSW 6.9 mph - N/A   Clear
8:55 PM 35.6 °F 29.2 °F 15.8 °F 44% 29.70 in 10.0 mi WSW 8.1 mph - N/A   Clear
9:15 PM 35.6 °F 29.2 °F 14.0 °F 41% 29.70 in 10.0 mi WSW 8.1 mph - N/A   Clear
10:15 PM 35.6 °F 29.2 °F 15.8 °F 44% 29.71 in 10.0 mi SSW 8.1 mph - N/A   Clear
10:35 PM 35.6 °F 28.6 °F 14.0 °F 41% 29.72 in 10.0 mi WSW 9.2 mph - N/A   Clear
10:55 PM 35.6 °F 29.2 °F 15.8 °F 44% 29.72 in 10.0 mi WSW 8.1 mph - N/A   Clear
11:15 PM 35.6 °F 29.2 °F 15.8 °F 44% 29.73 in 10.0 mi SW 8.1 mph - N/A   Clear
11:35 PM 35.6 °F 29.2 °F 15.8 °F 44% 29.74 in 10.0 mi WSW 8.1 mph - N/A   Clear
11:55 PM 37.4 °F 30.3 °F 15.8 °F 41% 29.75 in 10.0 mi WSW 10.4 mph - N/A   Clear